{"data":{"norad_id":59223,"epoch":"2026-09-20T10:10:31.714752Z","epoch_age_seconds":165467,"freshness":"FRESH","line1":"1 59223U 24046Y   26263.42397818  .00001209  00000+0  46907-4 0  9999","line2":"2 59223  53.1617 330.1494 0001193  94.9951 265.1188 15.34396805142856","mean_motion":15.34396805,"eccentricity":0.0001193,"inclination_deg":53.1617,"raan_deg":330.1494,"arg_perigee_deg":94.9951,"mean_anomaly_deg":265.1188,"bstar":4.6907e-5,"rev_number":14285,"period_min":93.847953495967,"perigee_km":461.89662306334,"apogee_km":463.52884981046,"semimajor_km":6840.8497364369,"source":"CELESTRAK","updated_at":"2026-09-21T09:00:34.073692Z"}}